Flag for United Kingdom Weather past 2 weeks in Liverpool, England, United Kingdom

Now
52 °F

Passing clouds.


Feels Like: 47 °F
Forecast: 45 / 56 °F
Wind: 15 mph from East

Location: Liverpool Airport


UV Index: 0 (Low)

Visibility: 6 mi


Pressure: 29.71 "Hg

Humidity: 88%

Dew point: 48 °F

Location of LiverpoolLocation

Historic Weather in Liverpool

°F

Liverpool temperature yesterday

Maximum temperature yesterday: 57 °F (at 1:50 PM)
Minimum temperature yesterday: 41 °F (at 1:20 AM)
Average temperature yesterday: 49 °F

Past Weeks' High & Low Weather Summary

 TemperatureHumidityPressure
High61 °F (Apr 6, 12:20 PM)100% (Apr 7, 8:50 AM)30.45 "Hg (Apr 7, 8:50 AM)
Low36 °F (Apr 19, 6:20 AM)47% (Apr 18, 3:20 PM)29.56 "Hg (Apr 7, 11:20 AM)
Average50 °F75%30.08 "Hg
* Reported Apr 6 1:20 AM — Apr 21 1:20 AM, Liverpool, Weather by CustomWeather, © 2014

Note: Actual official high and low records may vary slightly from our data, if they occured in-between our weather recording intervals... More about our weather records

Advertising

Historic Weather Conditions — Data for Previous 24 hours

 ConditionsComfort  
Time TempWeatherWind HumidityBarometerVisibility
1:20 AM
Apr 21
52 °FPassing clouds.15 mph88%29.71 "Hg6 mi
12:50 AM52 °FPassing clouds.18 mph82%29.71 "Hg6 mi
11:50 PM
Apr 20
52 °FPassing clouds.21 mph82%29.71 "Hg6 mi
11:20 PM52 °FPassing clouds.20 mph82%29.71 "Hg6 mi
10:50 PM52 °FClear.20 mph82%29.71 "Hg10 mi
9:50 PM52 °FClear.20 mph82%29.71 "Hg10 mi
9:20 PM52 °FClear.18 mph77%29.71 "Hg10 mi
8:50 PM54 °FSunny.22 mph72%29.68 "Hg10 mi
8:20 PM55 °FSunny.24 mph67%29.68 "Hg10 mi
7:50 PM55 °FSunny.24 mph72%29.71 "Hg10 mi
6:50 PM57 °FSunny.22 mph67%29.71 "Hg10 mi
6:20 PM57 °FSunny.23 mph72%29.71 "Hg10 mi
5:50 PM57 °FSunny.23 mph72%29.71 "Hg10 mi
5:20 PM57 °FScattered showers. Clear.18 mph72%29.74 "HgN/A
4:50 PM57 °FScattered showers. Passing clouds.18 mph72%29.74 "HgN/A
4:20 PM57 °FScattered showers. Passing clouds.16 mph72%29.77 "HgN/A
3:50 PM57 °FSprinkles. Scattered clouds.16 mph72%29.77 "HgN/A
3:20 PM57 °FSunny.17 mph72%29.77 "Hg10 mi
2:50 PM57 °FPassing clouds.18 mph67%29.80 "HgN/A
2:20 PM57 °FPassing clouds.16 mph72%29.80 "HgN/A
1:50 PM57 °FPassing clouds.20 mph72%29.80 "HgN/A
1:20 PM55 °FPassing clouds.18 mph72%29.83 "HgN/A
12:50 PM54 °FPassing clouds.16 mph77%29.83 "HgN/A
12:20 PM52 °FPassing clouds.14 mph77%29.86 "HgN/A
11:50 AM52 °FPassing clouds.15 mph77%29.86 "HgN/A
11:20 AM52 °FScattered clouds.16 mph77%29.89 "HgN/A
10:50 AM50 °FSprinkles. Partly sunny.14 mph82%29.92 "Hg6 mi
10:20 AM50 °FScattered clouds.10 mph82%29.89 "HgN/A
9:50 AM50 °FPassing clouds.10 mph76%29.92 "HgN/A
9:20 AM48 °FPassing clouds.10 mph76%29.92 "HgN/A
8:50 AM46 °FScattered clouds.12 mph82%29.92 "HgN/A
8:20 AM45 °FScattered clouds.8 mph81%29.95 "HgN/A
7:50 AM43 °FPassing clouds.7 mph87%29.95 "HgN/A
7:20 AM43 °FSunny.8 mph87%29.95 "Hg10 mi
6:50 AM41 °FPassing clouds.6 mph93%29.98 "HgN/A
6:20 AM41 °FClear.9 mph87%29.98 "Hg10 mi
5:50 AM41 °FClear.12 mph87%29.98 "Hg10 mi
5:20 AM41 °FClear.13 mph87%29.98 "Hg10 mi
4:50 AM41 °FClear.10 mph87%29.98 "Hg10 mi
4:20 AM41 °FClear.12 mph87%29.98 "Hg10 mi
3:50 AM41 °FClear.10 mph87%30.01 "Hg10 mi
3:20 AM41 °FClear.10 mph87%30.01 "Hg10 mi
2:50 AM41 °FClear.7 mph87%30.04 "Hg10 mi
2:20 AM41 °FClear.5 mph87%30.04 "Hg10 mi
Weather by CustomWeather, © 2014

See weather overview